Dewpoint
40 42 42 42 44 45 46 47 49 49 50 51 52 52 53 56 57 58 58 58 59 59
38 38 38 38 38 39 41 42 42 43 44 45 47 49 51 53 56 56 54 53 53 55
36 36 36 36 35 35 35 38 39 38 39 40 42 44 46 47 48 49 49 48 47 47
35 35 35 35 34 34 34 34 35 36 37 36 38 39 41 42 43 42 41 41 42 41
35 35 34 34 34 34 34 34 34 34 35 35 36 38 38 38 39 39 39 39 39 40
34 34 34 34 34 33 32 33 33 34 33 33 33 34 35 38 36 36 37 38 37 37
30 30 31 32 32 32 32 32 32 32 33 33 34 33 34 35 34 34 35 35 35 34
28 29 30 30 30 31 31 31 32 32 33 33 34 33 32 31 31 31 32 33 32 33
27 27 28 27 27 29 28 28 29 31 31 31 32 32 32 31 30 30 29 30 31 31
24 25 25 25 24 24 24 26 27 27 28 29 31 30 30 30 28 27 27 27 27 24
22 24 24 24 23 22 23 23 24 25 26 26 29 30 29 28 27 27 28 28 25 27
21 23 22 22 22 21 21 21 22 23 23 23 26 29 27 27 26 25 26 26 28 28
22 21 20 20 21 21 20 20 20 20 22 23 23 28 30 28 27 26 26 26 26 29
20 20 18 19 20 20 18 19 20 20 22 23 26 27 27 28 27 27 26 25 25 26
Wind_Speed
15 11 12 13 13 13 12 12 14 14 13 12 13 14 15 14 16 17 16 18 17 18
13 13 12 11 10 11 13 12 14 14 14 15 16 14 12 7 7 2 3 2 1 4
10 9 9 11 13 12 12 14 14 14 16 17 16 16 13 10 12 9 9 8 9 11
12 12 10 12 11 10 12 13 15 14 14 15 16 15 15 14 15 15 13 14 13 14
8 10 12 12 11 12 11 10 12 12 14 16 14 14 14 15 15 16 13 12 14 12
8 8 9 10 10 11 12 12 10 10 12 12 13 13 11 10 11 13 11 14 14 13
8 9 9 8 9 10 10 11 11 11 10 10 10 11 11 11 9 9 12 12 14 12
5 7 7 9 9 9 9 9 9 9 10 10 10 10 9 9 9 10 11 11 13 13
1 3 6 8 8 8 9 9 7 9 10 10 8 9 9 9 9 9 8 9 9 8
2 2 3 4 6 7 8 8 8 8 8 11 11 10 10 10 9 9 7 6 5 7
1 1 3 5 7 7 6 6 6 7 8 9 7 8 8 8 8 10 10 8 7 7
1 1 3 4 5 5 5 5 5 3 5 7 10 8 9 8 7 8 8 8 8 6
2 1 1 3 4 4 3 4 4 3 2 4 7 11 11 10 8 9 9 9 9 10
3 2 0 1 1 2 3 4 4 4 4 4 5 5 7 10 8 7 8 9 10 11
Wind_Direction
19 20 29 25 15 4 3 352 354 347 338 331 319 303 294 281 262 245 247 257 263 260
31 24 30 25 39 17 5 3 5 4 357 359 351 332 321 328 323 195 112 70 64 102
35 45 36 43 25 33 25 16 19 16 16 12 2 352 359 16 36 42 63 66 65 80
8 16 24 39 39 32 30 27 25 16 27 20 9 16 18 26 39 53 47 54 62 59
21 15 18 21 16 15 25 29 33 23 25 20 3 16 34 35 41 49 47 51 69 62
14 28 26 12 8 17 9 3 18 27 27 14 10 13 22 41 48 52 45 54 59 50
2 5 8 10 13 12 17 13 11 12 16 19 11 18 19 30 49 66 67 62 59 55
0 6 6 11 17 19 24 17 11 20 22 10 18 29 25 38 44 60 75 71 67 62
4 10 8 2 360 8 12 16 23 19 14 17 26 30 42 46 48 47 52 72 76 69
304 331 11 10 10 7 10 14 18 16 18 15 13 47 53 58 52 59 67 66 71 62
294 348 4 360 360 2 10 13 15 13 6 5 16 49 50 61 58 60 58 64 76 61
310 324 353 352 350 356 4 12 21 19 22 13 359 28 38 41 45 52 51 42 34 41
172 189 342 335 340 345 354 347 353 2 53 33 12 353 30 33 29 29 23 18 12 7
155 168 183 303 347 354 3 18 37 72 51 40 15 4 28 13 27 15 6 359 353 348